Probability
0 0 0 0 0 0 0 0 0 0 0 0 0 0 0 0 0 0 0 0 0 0 0 0 0 0 0 0 0 0 0 0 0 0 0 0 0 0
0 0 0 0 0 0 0 0 0 0 0 0 0 0 0 0 0 0 0 0 0 0 0 0 0 0 0 0 0 0 0 0 0 0 0 0 0 0
0 0 0 0 0 0 0 0 0 0 0 0 0 0 0 0 0 0 0 0 0 0 0 0 0 0 0 0 0 0 0 0 0 0 0 0 0 0
0 0 0 0 0 0 0 0 0 0 0 0 0 0 0 0 0 0 0 0 0 0 0 0 0 0 0 0 0 0 0 0 0 0 0 0 0 0
0 0 0 0 0 0 0 0 0 0 0 0 0 0 0 0 0 0 0 0 0 0 0 0 0 0 0 0 0 0 0 0 0 0 0 0 0 0
0 0 0 0 0 0 0 0 0 0 0 0 0 0 0 0 0 0 0 0 0 0 0 0 0 0 0 0 0 0 0 0 0 0 0 0 0 0
0 0 0 0 0 0 0 0 0 0 0 0 0 0 0 0 0 0 0 0 0 0 0 0 0 0 0 0 0 0 0 0 0 0 0 0 0 0
0 0 0 0 0 0 0 0 0 0 0 0 0 0 0 0 0 0 0 0 0 0 0 0 0 0 0 0 0 0 0 0 0 0 0 0 0 0
0 0 0 0 0 0 0 0 0 0 0 0 0 0 0 0 0 0 0 0 0 0 0 0 0 0 0 0 0 0 0 0 0 0 0 0 0 0
0 0 0 0 0 0 0 0 0 0 0 0 0 0 0 0 0 0 0 0 0 0 0 0 0 0 0 0 0 0 0 0 0 0 0 0 0 0
0 0 0 0 0 0 0 0 0 0 0 0 0 0 0 0 0 0 0 0 0 0 0 0 0 0 0 0 0 0 0 0 0 0 0 0 0 0
0 0 0 0 0 0 0 0 0 0 0 0 0 0 0 0 0 0 0 0 0 0 0 0 0 0 0 0 0 0 0 0 0 0 0 0 0 0
0 0 0 0 0 0 0 0 0 0 0 0 0 0 0 0 0 0 0 0 0 0 0 0 0 0 0 0 0 0 0 0 0 0 0 0 0 0
0 0 0 0 0 0 0 0 0 0 0 0 0 0 0 0 0 0 0 0 0 0 0 0 0 0 0 0 0 0 0 0 0 0 0 0 0 0
0 0 0 0 0 0 0 0 0 0 0 0 0 0 0 0 0 0 0 0 0 0 0 0 0 0 0 0 0 0 0 0 0 0 0 0 0 0
0 0 0 0 0 0 0 0 0 0 0 0 0 0 0 0 0 0 0 0 0 0 0 0 0 0 0 0 0 0 0 0 0 0 0 0 0 0
0 0 0 0 0 0 0 0 0 0 0 0 0 0 0 0 0 0 0 0 0 0 0 0 0 0 0 0 0 0 0 0 0 0 0 0 0 0
0 0 0 0 0 0 0 0 0 0 0 0 0 0 0 0 0 0 0 0 0 0 0 0 0 0 0 0 0 0 0 0 0 0 0 0 0 0
0 0 0 0 0 0 0 0 0 0 0 0 0 0 0 0 0 0 0 0 0 0 0 0 0 0 0 0 0 0 0 0 0 0 0 0 0 0
0 0 0 0 0 0 0 0 0 0 0 0 0 0 0 0 0 0 0 0 0 0 0 0 0 0 0 0 0 0 0 0 0 0 0 0 0 0
0 0 0 0 0 0 0 0 0 0 0 0 0 0 0 0 0 0 0 0 0 0 0 0 0 0 0 0 0 0 0 0 0 0 0 0 0 0
0 0 0 0 0 0 0 0 0 0 0 0 0 0 0 0 0 0 0 0 0 0 0 0 0 0 0 0 0 0 0 0 0 0 0 0 0 0
0 0 0 0 0 0 0 0 0 0 0 0 0 0 0 0 0 0 0 0 0 0 0 0 0 0 0 0 0 0 0 0 0 0 0 0 0 0
Height
5627 5630 5632 5635 5638 5640 5642 5644 5647 5650 5655 5657 5658 5660 5661 5663 5665 5667 5669 5672 5674 5677 5680 5683 5686 5689 5692 5695 5698 5701 5704 5707 5710 5712 5715 5717 5719 5722
5612 5615 5617 5620 5622 5624 5626 5628 5630 5633 5637 5642 5642 5643 5645 5647 5648 5651 5653 5655 5658 5661 5664 5667 5670 5673 5676 5679 5682 5686 5689 5692 5694 5697 5700 5703 5706 5708
5597 5599 5602 5603 5606 5608 5610 5612 5614 5616 5619 5624 5625 5627 5628 5630 5632 5634 5637 5639 5642 5644 5647 5650 5654 5657 5660 5663 5666 5669 5672 5675 5678 5682 5685 5688 5691 5693
5582 5584 5586 5587 5589 5591 5593 5595 5597 5599 5601 5605 5609 5610 5611 5613 5615 5617 5620 5622 5625 5628 5631 5634 5637 5640 5643 5646 5649 5653 5656 5658 5662 5665 5669 5672 5675 5677
5567 5568 5570 5571 5573 5575 5577 5579 5580 5582 5583 5586 5590 5592 5594 5596 5598 5600 5603 5606 5609 5612 5614 5617 5620 5623 5626 5629 5632 5636 5639 5643 5646 5649 5652 5655 5658 5661
5552 5552 5554 5555 5556 5558 5559 5561 5562 5564 5566 5568 5572 5575 5577 5579 5581 5583 5586 5589 5592 5595 5597 5600 5604 5607 5610 5613 5616 5619 5622 5625 5628 5631 5634 5637 5641 5644
5536 5536 5537 5538 5539 5540 5542 5543 5544 5546 5548 5551 5554 5557 5560 5561 5564 5566 5569 5573 5576 5578 5581 5585 5587 5590 5593 5595 5598 5601 5604 5607 5611 5613 5616 5620 5624 5627
5519 5520 5520 5521 5522 5523 5524 5525 5527 5528 5531 5533 5536 5539 5543 5544 5546 5549 5552 5556 5561 5564 5564 5568 5570 5573 5576 5578 5581 5584 5587 5590 5593 5596 5599 5603 5607 5610
5503 5503 5503 5504 5504 5505 5506 5507 5509 5511 5514 5516 5519 5522 5525 5527 5529 5532 5534 5538 5542 5545 5547 5551 5553 5556 5559 5561 5564 5566 5569 5572 5575 5579 5583 5587 5590 5594
5486 5486 5486 5486 5486 5487 5489 5491 5492 5494 5497 5499 5503 5506 5507 5509 5511 5514 5517 5520 5525 5528 5529 5533 5536 5539 5542 5544 5546 5549 5552 5555 5558 5562 5566 5570 5574 5577
5469 5468 5468 5469 5470 5470 5472 5474 5476 5478 5479 5482 5485 5487 5489 5491 5493 5496 5499 5502 5507 5511 5513 5515 5519 5521 5524 5527 5529 5531 5534 5537 5541 5545 5549 5553 5557 5560
5452 5452 5452 5452 5453 5453 5454 5456 5459 5462 5463 5465 5467 5470 5472 5474 5477 5479 5482 5485 5489 5493 5496 5497 5500 5502 5506 5511 5513 5515 5517 5520 5524 5528 5532 5536 5540 5543
5435 5435 5435 5436 5436 5437 5437 5439 5442 5444 5446 5448 5450 5453 5456 5458 5461 5463 5465 5468 5471 5476 5479 5480 5483 5485 5488 5493 5497 5499 5501 5503 5507 5511 5515 5519 5522 5526
5419 5419 5420 5420 5421 5421 5421 5423 5424 5426 5428 5430 5433 5436 5439 5442 5444 5447 5449 5451 5454 5458 5460 5462 5465 5468 5471 5475 5479 5482 5485 5487 5489 5494 5498 5502 5505 5508
5403 5403 5404 5404 5405 5405 5406 5406 5407 5409 5410 5413 5416 5419 5422 5424 5426 5429 5432 5434 5437 5440 5443 5445 5448 5450 5453 5457 5461 5464 5467 5470 5473 5477 5481 5485 5488 5492
5388 5388 5389 5389 5389 5389 5390 5391 5391 5393 5395 5397 5400 5402 5404 5406 5409 5412 5415 5418 5421 5424 5426 5428 5431 5434 5436 5440 5443 5447 5450 5453 5458 5461 5464 5469 5472 5475
5373 5373 5374 5374 5374 5374 5375 5376 5377 5378 5380 5382 5384 5386 5388 5390 5393 5396 5398 5401 5405 5408 5411 5413 5415 5417 5420 5423 5426 5430 5434 5437 5441 5444 5448 5453 5457 5459
5359 5359 5359 5359 5360 5360 5361 5362 5363 5364 5365 5367 5369 5371 5373 5375 5378 5381 5383 5386 5389 5392 5395 5398 5400 5402 5405 5409 5411 5414 5418 5422 5425 5429 5432 5436 5440 5443
5345 5346 5346 5346 5347 5347 5348 5349 5350 5351 5351 5353 5354 5356 5358 5360 5363 5366 5368 5371 5374 5377 5379 5381 5384 5386 5390 5395 5398 5400 5403 5406 5410 5414 5417 5421 5424 5427
5334 5333 5334 5334 5334 5334 5335 5335 5336 5337 5338 5339 5340 5342 5344 5346 5349 5352 5354 5357 5359 5362 5365 5367 5369 5372 5376 5380 5384 5387 5388 5391 5395 5399 5403 5406 5409 5412
5322 5322 5322 5322 5322 5322 5322 5323 5323 5324 5325 5326 5327 5329 5331 5334 5336 5339 5341 5344 5346 5348 5351 5354 5356 5359 5362 5365 5369 5372 5375 5377 5380 5385 5388 5392 5395 5398
5312 5311 5311 5310 5310 5310 5311 5311 5312 5312 5313 5314 5315 5317 5319 5322 5325 5327 5330 5332 5334 5336 5339 5342 5344 5347 5350 5353 5356 5359 5362 5365 5367 5371 5374 5378 5381 5385
5301 5300 5300 5299 5299 5300 5300 5300 5301 5301 5302 5303 5304 5306 5308 5311 5314 5316 5319 5321 5323 5325 5328 5330 5333 5336 5338 5341 5344 5347 5350 5353 5356 5360 5363 5365 5369 5373
Wind_Speed
56 56 56 56 56 55 56 56 57 57 55 54 55 54 55 55 56 56 56 56 56 56 56 55 55 54 54 54 53 52 51 50 50 50 49 49 48 47
56 56 56 56 57 56 56 56 57 58 57 56 56 56 56 56 57 58 57 57 57 57 57 56 56 55 55 55 55 54 52 53 53 52 51 51 51 50
56 57 57 58 58 57 57 57 58 58 58 57 58 58 58 58 58 59 59 59 58 57 58 57 57 56 56 56 56 56 55 54 54 54 53 53 53 52
56 57 58 59 59 58 58 58 59 59 60 59 59 59 59 59 59 59 59 59 59 58 57 57 58 57 57 57 57 57 57 56 55 55 55 55 55 56
55 56 57 57 59 60 60 60 60 60 61 61 60 60 61 60 60 60 60 60 59 59 58 58 58 58 59 59 59 59 59 58 57 57 57 57 57 58
55 55 56 57 59 60 61 61 61 61 61 61 60 60 60 60 60 61 60 60 59 59 59 59 59 59 59 60 60 60 60 59 58 58 57 57 58 58
56 57 57 58 59 60 61 61 61 61 61 60 60 60 59 60 60 60 60 60 59 59 59 59 59 59 59 60 61 60 60 59 59 59 58 57 57 57
57 58 59 60 60 60 60 60 60 60 61 60 59 59 59 59 59 60 60 60 60 59 60 59 60 60 59 60 60 60 60 60 60 59 58 57 56 56
58 58 59 60 60 60 60 60 59 59 60 60 60 59 59 58 59 60 60 61 59 60 61 60 60 60 59 59 59 59 60 60 59 59 59 58 57 57
58 58 58 58 58 59 59 59 59 59 59 59 59 59 59 60 60 59 60 60 60 59 60 59 59 60 60 59 59 59 60 60 59 59 58 58 58 57
56 56 56 57 57 57 58 58 58 58 58 58 58 58 59 59 59 59 58 59 59 59 60 59 59 59 59 59 59 58 58 59 59 59 59 58 58 58
55 55 55 55 56 57 57 57 58 58 58 57 57 58 59 59 59 59 58 58 58 58 58 59 59 59 58 57 57 58 58 59 60 60 59 58 57 57
54 54 54 54 55 55 57 57 57 58 58 59 59 59 59 59 59 59 59 59 59 57 58 58 58 58 57 56 56 56 57 58 59 60 59 58 57 57
51 52 53 53 53 53 55 56 56 57 58 58 58 59 59 59 59 59 59 59 58 57 57 58 58 58 57 57 56 57 58 58 58 59 58 56 57 57
49 49 50 51 52 52 52 53 53 54 55 55 55 56 56 58 59 59 59 58 57 57 57 56 57 57 57 57 57 57 57 57 58 58 58 57 57 57
48 48 48 49 49 50 50 50 51 52 52 53 53 54 55 56 57 57 57 57 56 55 55 55 56 56 56 56 56 55 55 56 56 57 57 57 56 56
47 47 47 48 49 49 48 48 49 49 51 51 52 52 52 53 53 54 55 55 55 54 54 54 55 54 54 53 53 53 54 55 55 56 56 56 56 55
45 46 46 46 47 47 47 46 47 47 48 49 50 50 50 50 51 52 52 53 53 53 53 53 53 52 51 50 51 52 53 54 54 55 55 55 55 54
43 43 43 44 44 45 45 46 47 47 47 48 48 49 49 48 48 48 48 49 50 51 51 51 51 51 50 49 49 50 51 51 52 53 53 53 53 53
39 39 40 40 41 41 42 43 43 44 45 45 46 46 46 45 45 45 45 46 46 47 48 48 48 48 48 47 47 48 50 50 50 51 50 49 49 50
37 37 38 38 39 40 40 40 40 41 42 42 43 43 43 42 42 42 42 42 43 43 44 45 45 45 46 46 46 46 46 47 48 48 47 47 47 46
35 35 36 36 37 37 38 38 39 39 39 39 39 39 40 40 39 39 39 39 39 40 41 42 43 42 43 43 42 42 43 44 44 44 44 44 44 43
33 33 33 33 33 34 35 35 36 36 36 36 36 36 37 37 37 37 37 36 36 37 38 39 39 40 39 39 39 40 40 41 42 42 42 41 41 41
Wind_Direction
258 258 257 257 257 258 258 259 259 258 258 258 259 259 259 259 259 259 259 259 258 258 258 258 258 258 258 258 258 259 258 258 258 258 258 258 258 258
259 259 258 257 257 257 259 259 259 259 258 257 258 259 259 259 259 258 259 259 258 257 257 257 257 258 258 257 257 258 258 258 257 257 258 257 258 258
260 259 260 259 258 258 259 259 259 259 259 258 259 259 259 258 258 258 257 257 258 258 257 257 257 257 257 257 257 257 257 257 257 257 257 257 257 257
261 260 260 260 259 259 259 259 259 260 260 259 259 258 258 258 258 258 258 257 258 258 258 258 257 256 256 256 256 256 256 258 258 257 257 257 257 257
262 261 260 260 260 260 260 260 260 260 260 259 259 258 258 258 258 258 258 257 258 258 258 258 257 257 256 257 257 257 257 258 258 258 257 257 257 258
263 262 262 262 261 260 260 260 260 260 259 259 259 258 259 259 258 258 257 257 258 259 259 258 258 257 257 258 258 258 258 257 257 258 258 257 257 257
264 263 263 263 262 261 260 260 260 260 260 259 259 259 259 259 258 258 257 257 257 258 258 258 258 258 258 258 259 258 258 258 258 258 257 256 256 257
265 265 265 264 263 261 260 260 259 260 259 259 259 259 259 258 258 258 258 258 258 258 258 259 259 259 259 258 259 259 258 257 257 257 256 254 254 256
266 266 265 264 264 262 260 259 259 260 259 259 259 258 258 258 259 259 259 258 258 257 258 259 260 261 260 260 260 259 258 256 255 255 255 254 253 256
267 266 266 264 264 263 261 260 260 260 260 259 259 259 259 259 260 260 260 259 258 258 259 260 260 261 261 261 260 259 258 257 255 254 255 254 255 255
267 266 265 264 263 263 261 260 260 260 260 260 259 258 258 259 260 260 261 260 259 259 259 260 260 261 261 261 260 259 257 256 255 254 255 254 255 255
267 267 266 265 264 263 262 261 260 260 259 259 259 259 259 259 259 260 260 261 260 259 259 260 260 260 260 260 260 259 257 256 255 255 254 254 256 255
268 267 267 267 266 265 264 263 262 261 260 260 260 260 260 259 259 259 260 260 260 260 259 259 260 260 260 260 259 259 258 257 256 255 253 255 256 257
270 268 268 267 267 267 266 265 264 263 262 261 260 259 259 259 259 259 259 259 260 259 259 259 259 259 259 259 258 258 258 256 255 254 253 255 256 256
270 269 268 267 268 267 266 264 263 262 261 260 260 259 259 259 258 258 258 259 259 259 259 258 258 259 259 259 258 258 257 255 254 253 253 254 255 256
269 269 268 267 267 266 265 264 263 261 260 259 259 259 260 259 259 258 258 259 259 259 258 258 259 259 259 259 258 256 256 254 253 253 253 254 255 256
271 269 269 267 266 266 266 265 264 262 261 260 260 259 259 259 259 259 258 259 258 258 258 259 260 259 258 257 256 255 254 253 253 253 254 255 255 256
272 271 270 268 266 266 266 265 264 264 263 262 260 260 260 260 260 259 259 259 259 259 259 259 259 258 257 256 256 255 254 253 253 253 253 254 254 255
275 273 271 269 267 266 265 265 265 265 264 263 261 261 261 261 260 259 259 259 259 259 258 258 258 256 255 256 255 255 255 254 253 253 254 255 255 255
277 275 273 271 270 269 267 266 266 265 264 263 262 261 260 259 259 258 258 259 259 258 258 257 256 255 254 255 254 254 255 255 254 254 254 256 256 255
277 276 274 273 271 270 269 268 267 266 266 265 263 260 257 256 257 257 257 258 258 258 257 256 255 254 253 253 253 253 254 255 255 255 254 255 255 254
278 277 276 274 272 271 270 268 267 266 266 265 262 258 255 255 255 255 256 257 258 257 256 255 254 253 252 252 252 252 252 252 253 254 255 255 255 255
278 278 276 274 272 271 270 268 267 266 265 263 261 256 254 253 253 254 255 256 256 254 253 252 252 252 252 252 252 251 250 250 252 253 253 254 255 256